Location: Erraguntapalli
(18.7700°N, 79.7783°E)
Time: 12:47:55
(UTC+00:00)

SL-08 R/B - Pass Details

Date: 15 November 2019
Orbit: 944 x 1008 km, 82.9° (Epoch: 12 December)

Event Time Altitude Azimuth Distance (km) Brightness Sun altitude
Rises 00:17:51 0° 187° (S) 3,661 7.6 -7.5°
Reaches altitude 10° 00:20:22 10° 189° (S) 2,706 6.9 -6.9°
Maximum altitude 00:26:32 75° 274° (W) 991 4.5 -5.6°
Drops below altitude 10° 00:32:39 10° 360° (N) 2,672 6.6 -4.2°
Sets 00:35:08 0° 2° (N) 3,613 7.3 -3.6°
